Showing default

OPTUS-X, 62006

Orbit data source: Space-Track

OPTUS-X, 62006 is a payload satellite owned by SingTel Optus (AU) in HEO that was launched on Sun, 17 Nov 2024 UTC via an FALCON 9 launch vehicle from the Air Force Eastern Test Range (AFETR). Payloads include a variety of satellites, spacecraft, and rockets equipped with specific instruments for various scientific and technological missions. These include communications satellites like Starlink; space stations such as the ISS; scientific satellites like the Hubble; Earth observation satellites from companies like Planet Labs, Umbra, and HawkEye 360; GPS; miniature CubeSats for education and research; and military/defense satellites.

Loading next visibility...
OPTUS-X details
Identifier
62006, 2024-212A
Orbit
HEO
Last TLE update2 days ago
Origin
Flag of AUSingTel Optus (AU / AUS)
ManufacturerADST/ADSUK
MissionOperational spacecraft
Bus & MotorEUROSTAR 3000EOR, XPS/PPS-5000
Mass~4,000 kg wet, ~2,000 kg dry
Launch date (UTC)
2024-11-17 (4 days ago)
Launch vehicle
FALCON 9
Launch site
Air Force Eastern Test Range (AFETR)
Object type
Payload
Rocket body
Debris
Shape & HBRUnknown
Radar Cross SectionRCS unknown

Expand to show TLE details & history

TLE from 2 days ago
0 OPTUS-X
1 62006U 24212A   24323.92213068  .00000165  00000-0  26146-2 0  9993
2 62006  17.7901 221.3474 7832771 179.4017 183.1588  1.55828708    28
Epoch: 2024-11-18T22:07Z
Definitive object data (Epoch: 2024-11-18T22:07:52.09Z)
Latitude0.00028°
Longitude-169.02902°
Altitude49,685.799 km
Speed1.239 km/s
True Right ascension14h 45m 30s
True Declination0° 00' 01"
Sunlit
Object was in daylight at TLE epoch
Visualization TLE readout
Latitude-8.29671°
Longitude163.45228°
Altitude32,477.859 km
Speed2.799 km/s
Apparent Right ascension13h 13m 13s
Apparent Declination-12° 54' 09"
Sunlit
Object is in daylight
Visualization observer readout
Local Sidereal Time03:43:15
Azimuth61.3° ENE
Elevation-47.422°
Doppler factor1
Orbital elements
Apogee altitude49,673.971 km
Perigee altitude433.914 km
Semi-major axis31,432.079 km
Eccentricity0.7832771
Inclination17.7901°
RAAN221.3474°
Arg. of periapsis179.4017°
True anomaly180.6176°
Mean anomaly183.1588°
Eccentric anomaly181.77147°
Mean motion0.38948 °/min
BSTAR0.0026146
Orbital period924.31 mins
Loading maneuver chart data...
Loading historical data...
Loading historical data...
Loading historical data...
Loading historical data...
Loading historical data...
Loading historical data...
Loading historical data...
Other satellites on launch #212 in the year 2024 (2024-11-17 UTC)

OPTUS-X Visibility forecast

Observer location: undefined°, undefined

Span
Click to sort rows by Start time (UTC) header in descending order
Start Az.
Max El. time (UTC)
Max El. Az.
Max El.
End time (UTC)
End Az.
304 mins2024-11-21 13:35:40.737Z100.526° ESE2024-11-21 17:22:40.737Z116.444° SE29.022°2024-11-21 18:39:40.737Z96.124° ESE
|